Hourly Data Report for November 09, 2020

VICTORIA UNIVERSITY CS
BRITISH COLUMBIA
Current Station Operator: ECCC - MSC

48°27'25.200" N
123°18'16.600" W
60.10 m
1018598
71783
WYJ

Download Data

Hourly Data (November 2020)
Hourly Data Report for November 9, 2020
TIME
LST
Temp Definition
°C
Dew Point Definition
°C
Rel Hum Definition
%
Precip. Amount Definition
mm

Wind Dir Definition
10's deg

Wind Spd Definition
km/h
Visibility Definition
km
Stn Press Definition
kPa
Hmdx Definition


Wind Chill Definition


Weather Definition


00:00 3.0 -4.1 60 0.0 33 6   101.58     LegendNANA
01:00 3.7 -4.1 57 0.0 33 7   101.57     LegendNANA
02:00 3.1 -4.0 60 0.0 30 5   101.58     LegendNANA
03:00 3.6 -4.2 56 0.0 2 3   101.55     LegendNANA
04:00 3.8 -4.4 55 0.0 4 3   101.54     LegendNANA
05:00 2.1 -2.9 70 0.0 26 2   101.54     LegendNANA
06:00 1.6 -2.1 77 0.0 25 2   101.52     LegendNANA
07:00 3.1 -2.0 69 0.0 15 2   101.47     LegendNANA
08:00 4.3 -1.2 67 0.0 19 2   101.49     LegendNANA
09:00 5.7 -0.5 64 0.0 19 3   101.50     LegendNANA
10:00 6.8 0.3 64 0.0 23 3   101.48     LegendNANA
11:00 7.0 0.5 63 0.0 12 1   101.46     LegendNANA
12:00 6.9 0.9 66 0.0 12 2   101.42     LegendNANA
13:00 6.9 1.7 69 0.0 12 2   101.36     LegendNANA
14:00 6.4 0.7 67 0.0 14 3   101.28     LegendNANA
15:00 6.2 1.9 74 0.0 14 3   101.20     LegendNANA
16:00 5.8 1.5 74 0.0 11 2   101.14     LegendNANA
17:00 5.9 1.9 75 0.0 13 3   101.03     LegendNANA
18:00 5.4 2.3 80 0.0 10 2   100.94     LegendNANA
19:00 5.2 2.6 83 0.0 12 5   100.80     LegendNANA
20:00 5.2 3.2 87 0.0 12 5   100.73     LegendNANA
21:00 5.4 3.5 87 0.2 16 5   100.70     LegendNANA
22:00 5.6 1.5 75 0.0 15 5   100.58     LegendNANA
23:00 5.1 4.1 93 0.4 15 4   100.58     LegendNANA

Notes on Data Quality.

Legend

  • E = Estimated
  • M = Missing
  • NA = Not Available*
  • [empty] = Indicates an unobserved value
Date modified: